GFSCGP_sfc_temp_039.txt.gz
Temp
71 65 59 64 67 69 68 65 64 71 79 72 68 71 74 77 78 76 75 74 74 76 77 77 76 73 71 71 70 68 68 68 66 65 65 66 66 67 68 69 72 73 73 74
66 60 70 74 74 72 68 66 65 71 77 72 68 70 73 75 77 78 77 74 76 74 73 75 71 72 71 69 68 67 67 67 67 65 66 67 67 67 68 69 71 72 73 73
61 70 78 76 73 71 66 62 64 66 71 70 68 65 66 73 75 78 78 77 76 76 73 72 72 69 69 70 68 67 66 67 67 67 66 67 67 68 68 69 70 71 72 72
67 76 76 72 72 72 59 72 72 69 63 58 65 53 61 65 66 72 73 74 74 75 74 72 71 69 69 70 69 68 66 67 67 67 66 66 65 65 67 68 67 68 70 70
68 71 73 70 75 76 70 74 69 68 60 56 61 55 60 63 63 66 71 74 75 74 74 72 71 71 71 70 68 68 65 66 67 67 66 65 65 65 67 67 67 67 67 68
71 79 77 76 79 77 76 70 63 56 54 50 55 55 56 60 65 66 71 75 76 75 74 72 71 71 70 70 69 68 65 65 67 67 68 67 67 68 67 66 65 65 66 66
68 71 76 81 72 73 68 57 47 48 47 48 54 55 58 65 69 71 72 74 76 77 73 70 70 70 69 68 68 68 66 65 66 68 68 68 69 68 67 65 64 64 64 65
58 58 72 77 71 67 61 59 49 42 43 49 56 51 58 67 69 72 75 74 75 74 73 71 71 71 71 71 70 70 67 68 68 68 68 69 68 67 66 65 65 64 65 65
57 61 75 76 77 75 62 57 60 50 44 48 51 58 65 68 67 70 71 72 70 70 72 70 70 71 72 71 71 71 70 69 69 69 68 68 67 67 65 65 65 65 66 67
65 57 67 77 76 72 70 68 56 50 44 41 49 51 54 61 63 65 66 67 68 69 69 70 72 71 71 71 70 71 70 69 70 70 69 68 67 67 66 65 65 65 65 65
63 58 63 70 64 65 64 58 53 53 49 46 44 50 57 59 63 63 65 68 67 69 70 70 70 70 70 71 70 70 68 68 69 70 69 67 67 66 66 65 65 65 64 64
65 57 53 63 70 71 66 61 57 51 49 46 47 52 63 60 62 64 64 66 65 67 68 70 69 69 68 69 69 67 68 68 69 69 69 67 67 66 65 65 66 65 64 64
65 54 50 57 62 66 65 62 56 52 50 47 48 52 62 59 59 61 62 63 65 66 70 68 67 67 67 66 65 67 68 67 68 68 68 66 66 65 65 65 65 64 64 63
67 52 55 55 57 61 61 65 63 55 50 49 51 56 58 58 56 61 63 61 63 64 67 66 65 65 65 66 64 65 68 69 69 68 67 65 65 65 65 65 65 64 63 62
62 54 55 57 64 65 64 65 65 58 57 55 56 56 57 56 59 60 59 62 64 65 66 65 66 64 63 65 64 66 67 68 68 68 67 65 65 65 65 65 64 63 62 61
57 55 54 55 65 66 64 67 68 64 62 60 56 56 56 57 58 61 62 61 63 64 67 68 67 66 64 65 65 66 67 67 68 68 68 67 66 65 65 64 64 62 61 60
55 53 51 49 58 61 56 62 61 61 60 58 55 60 56 57 59 61 62 62 63 65 67 68 67 65 63 64 66 66 67 68 68 68 68 67 66 65 65 64 63 61 60 59
55 51 48 48 51 46 59 64 66 59 60 59 58 58 59 58 60 61 61 60 62 65 68 68 67 64 64 65 65 66 67 67 69 68 68 67 67 66 65 64 64 61 59 58
57 51 47 48 45 52 62 62 62 59 55 61 59 59 61 62 61 63 62 63 66 66 66 67 69 66 66 66 65 65 65 67 67 65 67 69 67 66 65 64 63 63 60 61
55 53 51 45 45 44 57 67 67 65 51 63 62 60 61 60 57 62 61 64 63 63 63 64 65 65 66 65 65 64 65 66 65 64 64 65 68 67 65 64 63 63 62 61
47 47 48 45 44 51 61 67 65 53 55 64 64 61 60 58 62 62 63 62 62 62 62 63 62 62 63 64 65 63 63 64 61 61 62 62 62 66 66 64 64 62 60 58
50 46 44 43 42 45 65 66 59 60 57 69 67 64 62 60 62 62 61 61 61 61 61 61 60 59 60 62 61 61 59 60 61 61 60 58 59 63 65 64 62 60 58 56
48 51 47 49 49 55 59 59 60 59 60 61 61 61 62 60 61 61 59 59 59 59 58 58 59 59 59 60 61 59 58 59 58 59 57 56 56 58 63 63 60 58 57 55
52 54 50 50 58 59 58 61 62 64 63 64 64 63 63 60 60 59 59 57 57 57 56 55 56 57 57 58 58 58 57 58 57 56 56 55 54 55 56 56 58 57 55 54
52 54 50 50 55 56 59 59 60 64 66 65 65 65 64 63 61 60 58 58 57 56 55 55 57 57 57 58 57 57 56 57 55 54 53 52 52 52 50 48 51 52 51 54
51 52 49 48 54 53 56 58 62 62 63 66 66 63 63 63 61 61 59 59 59 59 56 57 57 58 57 58 57 57 57 56 54 53 53 52 52 52 52 51 49 47 46 45

GFSCGP_sfc_temp_042.txt.gz
Temp
67 63 58 62 64 66 64 61 61 66 74 69 66 68 71 72 73 72 71 71 72 74 76 75 73 73 72 71 71 70 68 69 67 66 66 66 66 68 69 70 71 73 75 74
64 57 67 71 70 67 63 60 62 68 73 69 66 65 68 71 73 75 74 72 73 72 73 72 69 70 70 70 70 68 68 68 66 66 66 67 67 68 69 69 70 73 74 74
60 65 73 72 68 66 61 60 62 64 68 66 65 62 65 70 72 74 75 74 74 73 72 70 69 68 70 69 69 68 68 67 67 67 67 67 68 69 69 68 69 71 72 72
64 71 72 68 68 69 55 70 70 67 61 57 63 53 59 62 65 68 71 72 73 73 73 71 69 67 69 70 70 69 68 67 67 67 67 67 67 66 67 68 69 70 71 71
65 67 67 66 70 73 68 70 68 66 58 54 59 53 59 62 64 65 67 71 73 73 73 72 70 69 70 70 70 69 67 66 67 67 67 66 67 67 68 68 68 69 69 70
68 75 73 73 75 75 73 67 61 54 52 49 52 53 55 58 61 65 69 72 72 73 71 70 70 70 69 70 70 68 66 65 67 67 68 67 69 68 67 67 66 67 67 68
64 68 73 77 69 70 66 56 46 47 46 47 51 52 57 64 66 68 70 71 72 73 70 69 69 69 68 68 68 68 66 65 67 69 69 70 69 68 67 66 66 66 66 67
55 56 68 74 71 66 59 58 48 42 41 48 53 50 60 67 68 68 72 72 72 71 70 70 70 70 70 69 68 69 66 66 67 69 70 70 68 68 67 67 66 66 66 67
54 57 72 75 72 72 60 56 57 47 43 47 49 57 65 67 67 66 68 70 70 70 70 70 71 71 70 70 69 70 67 68 68 69 69 68 68 68 67 67 67 67 67 68
61 53 62 73 72 70 66 66 55 49 44 41 48 50 53 61 64 64 65 65 66 68 69 70 70 70 71 71 71 71 71 70 70 70 69 68 68 67 67 67 66 66 66 67
60 60 61 65 62 62 62 56 51 51 48 45 43 50 58 62 63 61 63 65 65 67 69 69 69 69 71 71 71 70 70 68 67 68 68 68 67 67 67 66 66 66 65 65
64 59 53 62 67 68 63 59 55 50 48 43 46 52 62 60 62 62 63 66 66 68 69 68 68 69 70 70 70 68 69 68 68 68 67 67 67 67 66 67 66 66 65 65
63 53 50 55 60 64 61 58 54 50 48 45 47 52 59 59 59 61 63 64 64 66 67 68 67 67 69 68 68 68 68 67 68 68 67 67 67 67 66 66 66 66 65 64
66 52 55 51 57 61 58 61 59 55 49 48 50 56 61 59 60 61 60 61 62 64 66 66 66 66 67 66 66 66 66 68 68 68 68 67 66 67 66 66 66 65 65 64
61 56 53 55 62 63 63 64 62 58 56 55 56 56 61 59 58 59 60 63 64 65 66 65 65 65 65 65 65 67 67 67 68 69 68 67 66 67 67 66 66 65 64 63
55 52 53 53 62 65 63 65 64 62 59 59 57 57 60 57 59 59 61 62 63 64 67 67 66 65 65 65 65 66 68 68 69 69 68 67 67 66 66 66 65 64 63 62
55 53 51 49 58 61 55 61 61 60 59 59 56 61 57 58 60 61 61 61 62 64 66 67 66 66 64 65 66 66 67 69 69 69 67 67 66 66 65 65 65 63 62 61
53 49 49 48 51 46 57 61 63 61 60 59 57 59 58 59 61 61 62 62 64 64 66 67 66 65 64 66 66 66 67 68 68 67 66 66 66 66 65 64 63 63 62 60
56 50 46 48 45 52 57 62 62 59 59 61 58 60 62 63 63 60 62 64 64 65 65 65 67 66 65 66 66 67 67 68 67 67 67 67 68 66 66 64 63 63 61 61
59 54 52 46 45 44 55 64 66 64 53 62 61 61 61 61 55 57 62 64 64 64 63 64 65 66 65 64 65 65 66 66 65 66 68 68 68 66 66 65 64 63 61 61
51 49 48 45 46 51 61 65 64 53 55 62 63 62 59 57 57 61 63 62 62 62 62 63 62 62 63 65 65 64 63 61 62 63 64 63 64 66 66 65 64 63 60 59
49 46 47 44 43 46 58 63 57 58 59 63 62 61 58 58 59 61 62 61 61 60 60 61 60 60 61 63 62 59 58 60 62 62 61 61 60 62 65 64 63 61 58 55
47 49 48 50 50 54 57 57 60 59 60 60 62 62 62 61 59 60 60 60 59 59 59 59 59 59 59 60 62 59 59 60 60 59 59 58 58 58 64 63 61 59 57 54
50 51 48 51 54 57 57 59 61 62 62 63 64 64 64 60 60 59 59 59 58 58 57 58 59 58 57 59 58 58 58 59 58 57 56 56 55 56 57 59 59 58 56 55
51 52 50 50 54 56 59 59 59 62 64 63 64 64 62 61 59 59 58 57 57 57 56 57 59 58 57 58 57 58 58 58 56 56 55 53 53 52 50 49 52 54 53 55
51 52 49 48 54 53 55 58 61 61 62 64 63 61 63 62 60 60 59 59 58 57 58 58 59 59 58 58 57 57 58 58 56 55 54 53 53 52 52 52 49 46 46 45

GFSCGP_sfc_temp_045.txt.gz
Temp
79 81 78 81 81 80 78 75 74 78 83 81 81 82 86 82 83 82 82 80 82 83 87 86 85 84 83 82 79 77 75 73 73 76 76 75 68 75 72 77 79 77 81 83
78 76 79 79 79 79 77 75 76 80 81 82 80 81 81 81 82 85 83 82 83 85 82 83 82 82 80 80 79 78 76 74 72 76 76 75 69 73 79 75 73 77 81 83
75 78 79 78 77 77 77 77 76 76 78 79 78 78 79 82 82 83 85 85 85 85 83 81 80 80 81 78 77 78 76 74 74 75 74 74 74 76 77 75 74 78 81 81
76 80 78 78 77 81 76 81 80 77 79 74 76 71 75 79 81 82 82 84 86 86 85 82 80 79 79 80 79 78 76 75 74 74 73 75 75 74 75 77 79 80 79 79
75 77 77 76 79 81 78 81 79 75 75 74 73 74 78 75 78 81 82 82 86 88 85 83 82 81 79 79 79 79 76 75 75 74 75 75 77 78 79 79 77 76 77 78
78 83 82 82 81 82 79 77 73 71 74 69 67 69 75 78 76 79 83 83 84 85 84 84 83 79 77 78 76 79 75 75 75 74 75 74 75 76 77 77 78 78 80 80
74 77 83 84 79 80 79 77 68 65 66 65 66 67 75 79 79 78 79 83 84 84 83 81 79 78 76 78 79 78 75 74 75 75 74 76 76 76 75 76 77 77 78 78
68 67 78 83 82 78 76 77 69 56 61 66 66 67 77 78 79 79 80 82 85 83 83 81 82 81 79 79 80 79 76 74 75 77 75 76 77 78 78 76 77 77 77 76
68 69 79 81 82 83 72 72 75 64 60 66 69 72 80 78 79 78 79 79 81 82 82 81 81 81 79 80 80 79 76 76 76 77 76 74 75 76 75 75 76 77 76 76
74 68 77 79 82 78 78 76 70 69 58 57 65 65 72 77 79 77 76 77 78 80 80 80 80 79 79 82 81 80 79 77 76 78 74 73 74 75 74 75 74 74 74 73
77 73 73 76 75 75 72 73 68 72 66 64 61 68 77 77 79 76 75 76 77 77 78 79 78 80 81 83 81 79 77 73 69 70 69 69 72 75 75 74 74 74 73 73
78 74 68 73 77 77 77 74 74 69 59 62 67 71 76 76 75 74 75 75 76 77 78 78 78 77 79 82 79 76 74 71 70 69 68 71 76 76 75 74 73 74 72 72
74 69 65 68 73 75 74 71 69 67 67 62 65 71 74 73 73 74 74 73 74 76 77 77 76 76 79 80 72 75 74 73 71 69 70 75 75 75 74 74 74 74 73 73
74 67 68 66 69 72 68 69 70 73 68 65 70 73 79 76 74 73 71 73 76 75 75 77 75 75 78 77 74 76 76 77 74 73 74 75 75 75 75 74 74 73 73 72
75 68 68 71 72 72 74 72 70 70 73 73 74 72 79 73 71 70 73 74 75 75 75 75 75 74 76 74 74 75 76 76 76 76 77 76 75 76 75 74 74 73 73 72
68 65 68 67 71 73 71 73 73 71 71 72 73 73 72 69 71 71 71 73 73 74 75 75 75 74 74 74 74 75 75 74 76 76 76 75 74 74 74 74 73 72 72 71
67 64 65 63 67 70 65 72 73 73 74 76 72 74 71 68 70 71 71 72 74 75 75 75 75 76 74 74 72 72 76 77 76 76 73 71 71 70 73 73 73 72 71 70
63 61 63 62 65 57 69 72 74 73 74 74 71 70 70 70 70 70 71 72 72 71 72 76 76 76 74 74 75 76 76 76 76 73 70 71 69 69 72 71 68 67 70 69
67 64 58 61 62 63 68 69 71 72 74 74 72 70 71 72 73 68 70 70 67 66 66 67 70 77 75 74 75 75 75 76 75 70 67 70 68 68 69 69 65 64 67 68
69 65 69 61 60 57 66 73 76 75 69 74 72 73 72 72 72 71 70 67 65 64 65 65 70 74 73 72 73 73 74 75 74 71 68 70 70 68 71 67 66 66 67 69
61 62 63 62 62 66 69 71 76 65 67 72 72 73 71 71 72 68 69 67 65 63 64 65 65 66 69 72 72 71 72 71 69 67 67 70 70 69 69 66 66 63 63 66
61 61 58 59 60 58 66 72 69 68 70 71 71 71 69 69 66 65 67 66 66 63 63 64 63 63 65 69 71 65 63 64 65 66 67 68 69 67 68 68 64 62 61 59
60 61 63 63 64 62 64 64 68 69 69 71 71 72 72 69 65 65 65 66 66 63 63 65 66 63 63 65 65 62 61 65 64 63 63 64 63 64 65 65 63 60 59 56
62 62 63 62 62 64 65 67 68 70 71 72 73 73 74 70 66 65 65 66 65 65 63 64 65 65 62 63 62 62 63 64 65 62 61 60 59 58 59 62 61 59 57 56
65 63 60 61 63 64 66 66 66 70 71 71 73 73 72 69 66 67 67 65 64 66 66 67 66 64 63 63 63 62 61 62 60 59 58 57 57 54 51 49 53 57 57 57
67 63 64 61 63 63 63 65 68 70 70 72 72 70 72 73 71 71 70 68 67 67 66 66 66 65 64 63 63 63 63 63 62 62 60 57 56 54 54 53 50 46 47 46

GFSCGP_sfc_temp_051.txt.gz
Temp
98 92 87 92 96 96 93 88 88 92 96 93 93 93 97 101 101 99 98 95 95 96 99 99 98 98 97 95 92 90 84 84 85 88 81 79 79 69 72 76 79 80 80 77
92 86 95 98 96 94 91 88 87 93 95 94 93 92 98 99 99 101 100 98 96 98 97 97 96 96 95 94 91 89 85 83 83 88 87 86 82 79 79 80 78 83 87 84
87 93 98 92 91 88 90 88 88 88 93 96 92 88 92 98 100 100 101 102 100 98 97 96 95 94 96 93 91 89 82 82 85 83 85 83 81 82 85 86 87 88 86 86
91 97 91 90 88 92 84 94 92 89 87 81 93 76 87 94 95 97 100 101 101 99 99 97 95 94 94 94 93 90 83 84 86 83 84 83 83 84 83 81 83 83 86 87
87 90 88 87 89 94 88 95 92 90 87 86 87 82 86 92 90 94 97 98 101 100 100 98 97 95 95 95 92 91 84 84 85 83 84 83 83 86 86 82 83 83 84 87
91 97 95 93 96 95 97 91 90 90 88 76 83 83 82 88 90 93 97 97 99 100 100 99 99 96 94 94 92 91 84 83 84 83 83 82 84 83 81 84 81 87 89 89
87 89 95 96 89 94 92 86 75 72 74 73 85 81 83 90 94 95 94 97 99 101 100 98 95 92 91 90 90 90 84 81 83 84 84 84 84 82 83 83 87 82 88 87
79 76 89 95 91 87 87 87 77 66 70 74 83 74 83 93 97 97 98 100 100 100 100 98 96 93 92 91 90 90 83 81 84 84 84 85 83 84 87 83 85 84 85 85
81 80 95 95 96 95 87 81 93 81 83 76 82 85 91 94 95 95 96 97 97 98 98 97 96 95 93 92 91 90 84 83 84 85 84 83 83 83 82 82 82 83 82 83
87 77 91 93 95 95 91 94 81 82 67 66 76 77 78 85 90 92 92 92 94 96 97 96 96 96 95 94 92 92 86 85 85 85 83 80 76 79 83 82 81 81 79 78
91 84 85 91 85 85 86 84 86 88 82 71 67 75 89 89 91 91 91 92 94 96 96 96 97 97 97 96 94 91 88 85 83 75 69 66 72 75 79 81 82 82 78 78
92 87 78 83 92 95 93 87 86 77 73 79 77 76 94 93 93 94 92 92 93 95 97 96 96 95 95 95 93 89 85 81 78 73 70 70 74 73 82 82 82 82 77 79
91 82 74 77 87 90 86 89 89 87 84 75 72 76 94 94 92 93 90 91 90 92 93 93 93 92 94 91 82 81 79 76 74 76 74 78 76 81 81 81 81 80 80 80
85 84 77 75 79 87 81 84 88 85 77 78 78 76 83 89 89 88 88 89 90 91 90 91 90 90 92 87 84 80 80 83 78 79 81 76 76 83 82 82 82 81 81 80
88 75 81 84 87 88 87 85 85 83 83 78 78 71 78 87 89 88 89 88 88 89 90 90 89 89 85 86 86 85 86 83 81 79 78 79 81 82 82 82 81 82 81 81
88 76 80 79 85 87 83 87 86 86 86 83 85 76 66 82 89 87 87 88 87 88 89 89 89 89 86 85 88 88 86 84 83 81 81 80 80 80 79 81 81 80 80 80
82 79 75 71 83 82 76 83 85 86 88 87 80 79 77 81 85 85 86 88 88 88 88 88 88 89 87 84 88 86 85 86 84 84 83 81 79 78 77 78 80 79 79 79
79 76 77 74 77 65 83 93 92 87 88 91 86 81 86 86 87 88 88 88 87 86 88 89 90 89 89 87 88 87 86 85 85 84 83 81 76 74 71 72 72 76 78 77
85 79 74 70 72 78 82 85 87 85 82 92 87 86 87 86 85 82 86 86 85 83 83 81 84 89 89 88 87 86 84 84 84 83 81 79 76 75 75 73 75 74 72 73
84 80 76 75 66 63 78 90 95 93 75 88 89 86 82 83 80 84 85 83 81 80 76 75 81 85 87 86 86 84 83 82 82 84 81 79 76 75 75 73 73 74 73 69
74 74 71 72 70 72 78 86 90 73 72 86 89 88 86 84 83 84 85 82 81 78 74 75 81 83 84 85 85 82 82 81 84 84 83 79 79 75 77 75 69 69 70 70
72 69 71 74 59 62 82 82 73 78 84 87 87 89 87 84 85 85 85 82 82 79 75 76 75 76 76 83 83 81 80 80 79 81 80 78 77 77 78 75 73 72 71 70
69 70 66 70 64 68 82 76 80 83 83 85 87 88 87 86 86 86 83 82 82 80 79 78 73 71 72 73 78 79 72 75 76 76 74 75 75 77 75 74 72 70 69 71
76 78 76 73 77 77 80 82 83 84 82 85 88 88 89 86 85 84 82 81 81 80 80 82 78 71 70 72 73 73 72 72 72 73 73 73 72 68 70 72 71 68 65 67
71 78 74 75 77 79 78 78 81 81 83 83 85 86 84 85 83 82 80 78 79 78 80 80 77 71 70 70 71 71 70 70 70 71 72 70 70 65 58 53 52 61 62 61
82 72 73 65 75 76 74 77 80 80 81 84 84 83 85 85 82 84 81 81 80 79 79 78 77 75 74 72 72 72 71 70 69 69 71 71 72 65 58 55 52 47 47 49